Regional Weather Roundup
Issued by NWS Charleston, WV

Home | Current Version | Previous Version | Text Only | Print | Product List | Glossary Off
Versions: 1 2 3 4 5 6 7 8 9 10 11 12 13 14 15 16 17 18 19 20 21 22 23 24 25 26 27 28 29 30 31 32 33 34 35 36 37 38 39 40 41 42 43 44 45 46 47 48 49 50

000
ASUS41 KRLX 301110
RWRRLX
West Virginia Regional Weather Roundup
National Weather Service Charleston WV
700 AM EDT TUE JUN 30 2015

Note: "fair" indicates few or no clouds below 12,000 feet with no
significant weather and/or obstructions to visibility.

WVZ003-301200-
Northern Panhandle of West Virginia

CITY           SKY/WX    TMP DP  RH WIND       PRES   REMARKS
WHEELING       CLOUDY    64  62  93 SW7       29.87R FOG
$$

WVZ009-301200-
Northwest West Virginia

CITY           SKY/WX    TMP DP  RH WIND       PRES   REMARKS
PARKERSBURG    NOT AVBL
$$

WVZ006-301200-
Western West Virginia

CITY           SKY/WX    TMP DP  RH WIND       PRES   REMARKS
HUNTINGTON     CLOUDY    66  65  96 SW7       29.90R
$$

WVZ015-301200-
West Central West Virginia

CITY           SKY/WX    TMP DP  RH WIND       PRES   REMARKS
CHARLESTON     MOCLDY    69  64  84 SW7       29.91R
$$

WVZ022-031-301200-
North Central West Virginia

CITY           SKY/WX    TMP DP  RH WIND       PRES   REMARKS
CLARKSBURG     CLOUDY    66  63  90 CALM      29.89R
MORGANTOWN     PTSUNNY   66  62  87 S5        29.89S
$$

WVZ025-035-042-045-301200-
Southern West Virginia

CITY           SKY/WX    TMP DP  RH WIND       PRES   REMARKS
BECKLEY        MOCLDY    66  61  84 SW9       29.99R
LOGAN          CLOUDY    68  64  88 CALM      29.92R
BLUEFIELD      CLOUDY    66  61  84 W9        30.02R
LEWISBURG      MOCLDY    63  61  93 CALM      29.98R
$$

WVZ047-301200-
Northern Mountains of West Virginia

CITY           SKY/WX    TMP DP  RH WIND       PRES   REMARKS
ELKINS         RAIN      62  59  90 CALM      29.95R FOG
$$

WVZ052-301200-
Eastern Panhandle of West Virginia

CITY           SKY/WX    TMP DP  RH WIND       PRES   REMARKS
MARTINSBURG    CLOUDY    66  62  87 CALM      29.90R
PETERSBURG     MOSUNNY   63  60  90 CALM      29.91R
$$



USA.gov is the U.S. government's official web portal to all federal, state and local government web resources and services.